#timestamp,LO_Frequency,Hit 
1498723215.3,286046989.9,N
1498723235.2,286046987.7,N
1498723255.0,286046986.6,N
1498723255.9,286046986.6,N
1498723275.7,286046986.5,N
1498723295.6,286046986.3,N
1498723315.4,286046986.4,N
1498723335.2,286046987.7,N
1498723355.1,286046985.7,N
1498723356.0,286046985.7,N
1498723375.8,286046986.3,N
1498723395.7,286046985.6,N
1498723415.5,286046988.4,N
1498723435.3,286046986.0,N
1498723455.2,286046985.7,N
1498723475.0,286046986.1,N
1498723475.9,286046986.1,N
1498723495.7,286046986.8,N
1498723515.6,286046983.7,N
1498723535.4,286046986.8,N
1498723555.2,286046986.0,N
1498723575.1,286046985.5,N
1498723576.0,286046985.5,N
1498723625.8,286046986.7,Y
1498723635.8,286046991.2,N
1498723655.6,286046999.6,N
1498723675.4,286046997.4,N
1498723695.3,286046995.1,N
1498723715.1,286046997.1,N
1498723716.0,286046997.1,N
1498723735.8,286046997.4,N
1498723755.7,286046999.2,N
1498723775.5,286046999.0,N
1498723795.3,286046996.5,N
1498723815.2,286046996.9,N
1498723835.0,286046995.7,N
1498723835.9,286046995.7,N
1498723855.7,286046993.7,N
1498723875.6,286046995.2,N
1498723895.4,286046996.6,N
1498723915.2,286046997.1,N
1498723935.1,286046995.2,N
1498723936.0,286046995.2,N
1498723955.8,286046997.9,N
1498723975.6,286046996.2,N
1498723995.5,286046995.3,N
1498724015.3,286046995.1,N
1498724035.2,286046995.8,N
1498724055.9,286046997.9,N
1498724075.7,286046995.8,N
1498724095.6,286046998.0,N
1498724115.4,286046995.7,N
1498724135.2,286046995.4,N
1498724155.1,286046996.2,N
1498724156.0,286046996.2,N
1498724175.8,286046996.3,N
1498724195.6,286046995.9,N
1498724215.5,286046995.9,N
1498724235.3,286046996.3,N
1498724255.1,286046996.1,N
1498724275.9,286046995.4,N
1498724295.7,286046995.4,N
1498724315.5,286046997.4,N
1498724335.4,286046997.3,N
1498724355.2,286046995.0,N
1498724375.0,286046997.5,N
1498724375.9,286046997.5,N
1498724395.8,286046996.2,N
1498724415.6,286046995.2,N
1498724435.4,286046998.0,N
1498724455.3,286046994.9,N
1498724475.1,286046995.9,N
1498724495.8,286046995.9,N
1498724515.7,286046995.2,N
1498724535.5,286046997.8,N
1498724555.3,286046998.7,N
1498724575.2,286046997.5,N
1498724595.0,286046999.6,N
1498724595.9,286046999.6,N
1498724615.8,286046997.0,N
1498724635.6,286046996.7,N
1498724655.4,286046997.8,N
1498724675.3,286046997.9,N
1498724695.1,286046997.8,N
1498724696.0,286046997.8,N
1498724715.8,286046999.1,N
1498724735.7,286046999.5,N
1498724755.5,286046996.9,N
1498724775.3,286046997.5,N
1498724795.2,286046995.5,N
1498724815.9,286046994.9,N
1498724835.7,286046997.5,N
1498724855.6,286047011.9,N
1498724875.4,286046995.6,N
1498724895.2,286046995.9,N
1498724915.1,286046993.3,N
1498724916.0,286046993.3,N
1498724935.8,286046993.3,N
1498724955.6,286046995.8,N
1498724975.5,286046995.8,N
1498724995.3,286046998.0,N
1498725015.1,286046995.5,N
1498725035.9,286046995.2,N
1498725055.7,286046997.6,N
1498725075.5,286046995.0,N
1498725095.4,286046995.6,N
1498725115.2,286046995.5,N
1498725135.0,286046993.6,N
1498725135.9,286046993.6,N
1498725155.8,286046993.4,N
1498725175.6,286046997.9,N
1498725195.5,286046997.5,N
1498725215.3,286046995.7,N
1498725235.1,286046995.7,N
1498725255.9,286046995.4,N
1498725275.7,286046993.4,N
1498725295.5,286046995.8,N
1498725315.4,286046993.6,N
1498725335.2,286046992.2,N
1498725355.0,286046994.7,N
1498725355.9,286046994.7,N
1498725375.8,286046991.9,N
1498725395.6,286046994.2,N
1498725415.4,286046996.0,N
1498725435.3,286046994.6,N
1498725455.1,286046993.8,N
1498725475.8,286046991.7,N
1498725495.7,286046992.0,N
1498725515.5,286046994.4,N
1498725535.3,286046993.4,N
1498725555.2,286046994.7,N
1498725575.0,286046994.4,N
1498725575.9,286046994.4,N
1498725595.7,286046994.6,N
1498725615.6,286046992.5,N
1498725635.4,286046992.7,N
1498725655.2,286046992.2,N
1498725675.1,286046994.4,N
1498725676.0,286046994.4,N
1498725695.8,286046994.0,N
1498725715.7,286046994.0,N
1498725735.5,286046992.2,N
1498725755.3,286046992.9,N
1498725775.2,286046992.3,N
1498725795.9,286046993.0,N
1498725815.7,286046990.6,N
1498725835.6,286046991.6,N
1498725855.4,286046990.2,N
1498725875.2,286046987.1,N
1498725895.1,286046988.1,N
1498725896.0,286046988.1,N
1498725915.8,286046985.8,N
1498725935.6,286046988.0,N
1498725955.5,286046985.4,N
1498725975.3,286046987.5,N
1498725995.1,286046987.2,N
1498726015.9,286046987.8,N
1498726035.7,286046988.2,N
1498726055.5,286046985.9,N
1498726075.4,286046988.4,N
1498726095.2,286046988.2,N
1498726115.0,286046986.5,N
1498726115.9,286046986.5,N
1498726135.8,286046984.3,N
1498726155.6,286046984.2,N
1498726175.4,286046984.2,N
1498726195.3,286046985.9,N
1498726215.1,286046983.7,N
1498726216.0,286046983.7,N
1498726235.8,286046986.8,N
1498726255.7,286046985.6,N
1498726275.5,286046986.7,N
1498726295.3,286046986.5,N
1498726315.2,286046984.9,N
1498726335.9,286046982.6,N
1498726355.7,286046985.1,N
1498726375.6,286046983.0,N
1498726395.4,286046983.1,N
1498726415.2,286046982.8,N
1498726435.1,286046982.8,N
1498726436.0,286046982.8,N
1498726455.8,286046983.2,N
1498726475.6,286046983.6,N
1498726495.5,286046983.1,N
1498726515.3,286046980.5,N
1498726535.1,286046981.0,N
1498726555.9,286046980.6,N
1498726575.7,286046980.8,N
1498726595.5,286046983.6,N
1498726615.4,286046983.3,N
1498726635.2,286046982.4,N
1498726655.0,286046982.9,N
1498726655.9,286046982.9,N
1498726675.8,286046983.2,N
1498726695.6,286046981.7,N
1498726715.4,286046981.4,N
1498726735.3,286046981.1,N
1498726755.1,286046983.0,N
1498726756.0,286046983.0,N
1498726775.8,286046981.5,N
1498726795.7,286046980.9,N
